Location: Unspecified
(0.0000°N, 0.0000°E)
Time: 06:04:46
(UTC+00:00)

Vanguard 2 Rocket - Pass Details

Date: 12 October 2023
Orbit: 552 x 3312 km, 32.9° (Epoch: 06 December)

Event Time Altitude Azimuth Distance (km) Brightness Sun altitude
Rises 15:09:16 0° 302° (WNW) 7,131 12.0 38.9°
Reaches altitude 10° 15:13:55 10° 301° (WNW) 6,220 11.9 37.8°
Maximum altitude 15:34:25 77° 218° (SW) 3,070 10.3 32.7°
Drops below altitude 10° 15:49:28 10° 132° (SE) 4,764 10.3 29.0°
Sets 15:52:32 0° 130° (SE) 5,462 10.5 28.2°
